Location: Centerville
(32.8776°N, 96.6203°W)
Time: 02:28:21
(UTC+00:00)

SL-16 R/B - Pass Details

Date: 17 June 2021
Orbit: 842 x 847 km, 71.0° (Epoch: 27 July)

Event Time Altitude Azimuth Distance (km) Brightness Sun altitude
Exits shadow 06:07:36 32° 49° (NE) 1,401 3.5 -33.5°
Drops below altitude 10° 06:10:48 10° 31° (NNE) 2,467 5.2 -33.6°
Sets 06:13:18 0° 27° (NNE) 3,405 6.1 -33.6°
